Date String (YYYY-MM-DD hh:mm:ss) UTC,Instrument flags,Ambient pressure (hPa),Sample flow (lpm),Bypass flow (lpm),Sample temperature (°C),Ambient temperature (°C),ASC tube jacket temperature (°C),LED temperature (°C),Box temperature (°C),Sample RH (%),Span deviation,Mass concentration (μg/m³),Mass concentration (μg/m³),Mass concentration (μg/m³)
DateTimeUTC,F1_M11,P_M11,Q1_M11,Q2_M11,T1_M11,T2_M11,T3_M11,T4_M11,T5_M11,U1_M11,ZSPAN_M11,X0_M11,X2_M11,X1_M11
2022-09-22 16:00:00,,0831.2,4.99,0.00,29.1,27.6,00.0,37.8,31.0,26.0,-000.5,0006.44,0004.51,0004.29
2022-09-22 16:01:00,,0831.2,5.01,0.00,29.1,27.6,00.0,37.8,31.0,26.0,0000.0,0006.50,0004.51,0004.27
2022-09-22 16:02:00,,0831.2,4.99,0.00,29.1,27.6,00.0,37.9,31.0,26.0,0000.0,0006.33,0004.48,0004.25
2022-09-22 16:03:00,,0831.2,5.01,0.00,29.1,27.6,00.0,37.9,31.0,26.0,0000.0,0006.35,0004.46,0004.22
2022-09-22 16:04:00,,0831.2,4.99,0.00,29.1,27.7,00.0,37.9,31.0,26.0,0000.0,0006.27,0004.43,0004.18
2022-09-22 16:05:00,,0831.2,5.01,0.00,29.1,27.7,00.0,37.9,31.0,26.0,0000.0,0006.26,0004.42,0004.17
2022-09-22 16:06:00,,0831.1,4.99,0.00,29.1,27.7,00.0,37.9,31.0,26.1,0000.0,0006.27,0004.42,0004.17
2022-09-22 16:07:00,,0831.2,5.00,0.00,29.2,27.7,00.0,37.9,31.0,26.3,0000.0,0006.07,0004.41,0004.15
2022-09-22 16:08:00,,0831.1,4.99,0.00,29.2,27.7,00.0,37.9,31.1,26.3,0000.0,0006.01,0004.39,0004.14
2022-09-22 16:09:00,,0831.1,5.01,0.00,29.2,27.7,00.0,37.9,31.0,26.3,0000.0,0005.87,0004.36,0004.13
2022-09-22 16:10:00,,0831.0,4.99,0.00,29.2,27.7,00.0,37.9,31.0,26.2,0000.0,0005.91,0004.37,0004.14
2022-09-22 16:11:00,,0831.0,5.00,0.00,29.2,27.7,00.0,37.9,31.1,26.3,0000.0,0006.28,0004.37,0004.15
2022-09-22 16:12:00,,0831.1,4.99,0.00,29.2,27.7,00.0,37.9,31.1,26.3,0000.0,0006.59,0004.37,0004.15
2022-09-22 16:13:00,,0830.9,5.01,0.00,29.2,27.7,00.0,37.9,31.1,26.2,0000.0,0006.71,0004.37,0004.15
2022-09-22 16:14:00,,0830.9,4.99,0.00,29.2,27.7,00.0,37.9,31.1,26.3,0000.0,0006.85,0004.40,0004.15
2022-09-22 16:15:00,,0830.9,5.01,0.00,29.2,27.7,00.0,37.9,31.1,26.2,0000.0,0006.95,0004.41,0004.15
2022-09-22 16:16:00,,0830.9,4.99,0.00,29.2,27.7,00.0,37.9,31.1,26.3,0000.0,0007.04,0004.42,0004.14
2022-09-22 16:17:00,,0831.0,5.01,0.00,29.2,27.7,00.0,37.9,31.1,26.3,0000.0,0007.01,0004.40,0004.13
2022-09-22 16:18:00,,0830.9,4.99,0.00,29.2,27.7,00.0,37.9,31.1,26.0,-000.2,0007.08,0004.41,0004.12
2022-09-22 16:19:00,,0830.9,5.01,0.00,29.2,27.7,00.0,37.9,31.1,25.9,-000.6,0007.06,0004.39,0004.10
2022-09-22 16:20:00,,0830.9,4.99,0.00,29.2,27.8,00.0,37.9,31.1,25.8,-001.1,0007.02,0004.37,0004.08
2022-09-22 16:21:00,,0830.9,5.00,0.00,29.2,27.8,00.0,37.9,31.1,26.1,-000.8,0006.86,0004.32,0004.04
2022-09-22 16:22:00,,0830.9,5.01,0.00,29.2,27.8,00.0,37.9,31.1,26.1,-000.9,0006.29,0004.27,0004.00
2022-09-22 16:23:00,,0830.9,4.99,0.00,29.2,27.8,00.0,37.9,31.1,25.9,-001.7,0005.91,0004.23,0003.97
2022-09-22 16:24:00,,0830.9,5.01,0.00,29.2,27.8,00.0,37.9,31.1,25.8,-001.7,0005.85,0004.22,0003.95
2022-09-22 16:25:00,,0830.8,4.99,0.00,29.2,27.8,00.0,37.9,31.1,25.9,-001.5,0005.77,0004.19,0003.92
2022-09-22 16:26:00,,0830.7,5.01,0.00,29.2,27.8,00.0,38.0,31.1,26.2,-001.5,0005.79,0004.18,0003.90
2022-09-22 16:27:00,,0830.8,4.99,0.00,29.2,27.8,00.0,38.0,31.1,25.6,0000.0,0005.80,0004.17,0003.88
2022-09-22 16:28:00,,0830.8,4.99,0.00,29.2,27.8,00.0,38.0,31.1,25.3,-000.3,0005.68,0004.14,0003.86
2022-09-22 16:29:00,,0830.9,5.00,0.00,29.3,27.8,00.0,38.0,31.1,25.9,0000.0,0005.66,0004.12,0003.84
2022-09-22 16:30:00,,0831.0,5.01,0.00,29.3,27.8,00.0,38.0,31.1,26.1,0000.0,0005.71,0004.12,0003.82
2022-09-22 16:31:00,,0830.9,5.01,0.00,29.3,27.8,00.0,38.0,31.1,26.2,0000.0,0005.85,0004.14,0003.82
2022-09-22 16:32:00,,0831.0,4.99,0.00,29.3,27.8,00.0,38.0,31.1,25.8,0000.0,0006.00,0004.16,0003.82
2022-09-22 16:33:00,,0830.9,5.01,0.00,29.3,27.8,00.0,38.0,31.1,25.7,0000.0,0006.19,0004.21,0003.83
2022-09-22 16:34:00,,0831.0,4.99,0.00,29.3,27.8,00.0,38.0,31.2,25.8,0000.0,0006.27,0004.24,0003.85
2022-09-22 16:35:00,,0831.0,5.01,0.00,29.3,27.8,00.0,38.0,31.2,26.3,0000.0,0006.31,0004.25,0003.86
2022-09-22 16:36:00,,0831.0,4.99,0.00,29.3,27.8,00.0,38.0,31.2,25.7,0000.0,0006.21,0004.22,0003.85
2022-09-22 16:37:00,,0831.0,4.99,0.00,29.3,27.8,00.0,38.0,31.2,25.7,0000.0,0005.97,0004.16,0003.82
2022-09-22 16:38:00,,0831.0,5.01,0.00,29.3,27.8,00.0,38.0,31.2,25.9,0000.0,0005.83,0004.13,0003.81
2022-09-22 16:39:00,,0831.0,4.99,0.00,29.3,27.8,00.0,38.0,31.2,25.7,0000.0,0005.76,0004.11,0003.80
2022-09-22 16:40:00,,0830.9,5.01,0.00,29.3,27.9,00.0,38.0,31.2,25.8,0000.0,0005.82,0004.14,0003.82
2022-09-22 16:41:00,,0830.9,5.00,0.00,29.3,27.8,00.0,38.0,31.2,26.2,0000.0,0005.85,0004.16,0003.85
2022-09-22 16:42:00,,0830.8,4.99,0.00,29.3,27.9,00.0,38.0,31.2,26.6,0000.0,0005.79,0004.16,0003.86
2022-09-22 16:43:00,,0830.7,5.01,0.00,29.3,27.9,00.0,38.0,31.2,26.0,0000.0,0005.69,0004.14,0003.87
2022-09-22 16:44:00,,0830.8,4.99,0.00,29.3,27.9,00.0,38.0,31.2,25.7,0000.0,0005.59,0004.12,0003.86
2022-09-22 16:45:00,,0830.7,5.01,0.00,29.3,27.9,00.0,38.0,31.2,25.7,0000.0,0005.52,0004.10,0003.85
2022-09-22 16:46:00,,0830.7,4.99,0.00,29.3,27.9,00.0,38.0,31.2,25.7,0000.0,0005.51,0004.11,0003.86
2022-09-22 16:47:00,,0830.6,5.01,0.00,29.3,27.9,00.0,38.0,31.2,25.8,0000.0,0005.65,0004.18,0003.91
2022-09-22 16:48:00,,0830.6,4.99,0.00,29.3,27.9,00.0,38.0,31.2,26.1,0000.0,0005.91,0004.27,0003.97
2022-09-22 16:49:00,,0830.7,5.00,0.00,29.3,27.9,00.0,38.1,31.2,26.2,0000.0,0005.99,0004.33,0004.02
2022-09-22 16:50:00,,0830.8,5.00,0.00,29.3,27.9,00.0,38.1,31.2,25.9,0000.0,0006.18,0004.39,0004.06
2022-09-22 16:51:00,,0830.8,4.99,0.00,29.3,27.9,00.0,38.1,31.2,25.7,0000.0,0006.23,0004.40,0004.08
2022-09-22 16:52:00,,0830.8,5.01,0.00,29.3,27.9,00.0,38.1,31.2,25.9,0000.0,0006.52,0004.48,0004.10
2022-09-22 16:53:00,,0830.9,4.99,0.00,29.3,27.9,00.0,38.1,31.2,25.9,0000.0,0006.52,0004.50,0004.12
2022-09-22 16:54:00,,0830.9,5.00,0.00,29.3,27.9,00.0,38.1,31.2,25.8,0000.0,0006.65,0004.55,0004.15
2022-09-22 16:55:00,,0830.9,5.00,0.00,29.3,27.9,00.0,38.1,31.2,25.8,0000.0,0006.73,0004.59,0004.18
2022-09-22 16:56:00,,0831.0,5.00,0.00,29.3,27.9,00.0,38.1,31.2,25.5,0000.0,0006.82,0004.62,0004.21
2022-09-22 16:57:00,,0830.9,5.00,0.00,29.3,27.9,00.0,38.1,31.2,25.6,0000.0,0006.97,0004.66,0004.22
2022-09-22 16:58:00,,0830.9,4.99,0.00,29.3,27.9,00.0,38.1,31.2,25.5,0000.0,0006.88,0004.64,0004.22
2022-09-22 16:59:00,,0830.8,5.01,0.00,29.4,27.9,00.0,38.1,31.2,25.5,0000.0,0006.72,0004.61,0004.22
